Regional Weather Roundup
Issued by NWS Bismarck, ND

Home | Current Version | Previous Version | Text Only | Print | Product List | Glossary On
Versions: 1 2 3 4 5 6 7 8 9 10 11 12 13 14 15 16 17 18 19 20 21 22 23 24 25 26 27 28 29 30 31 32 33 34 35 36 37 38 39 40 41 42 43 44 45 46 47 48 49 50
000
ASUS43 KBIS 301810
RWRBIS

NWR BROADCAST TEXT
NATIONAL WEATHER SERVICE BISMARCK ND
100 PM CDT THU JUL 30 2015

NOTE: "FAIR" INDICATES FEW OR NO CLOUDS BELOW 12,000 FEET WITH NO
SIGNIFICANT WEATHER AND/OR OBSTRUCTIONS TO VISIBILITY.


CITY           SKY/WX    TMP DP  RH WIND       PRES   REMARKS
WILLISTON      SUNNY     80  48  32 NW12      30.19S
MINOT          SUNNY     80  49  33 NW18G25   30.12S
MINOT AFB      SUNNY     80  52  38 NW16G24   30.11R
BISMARCK       SUNNY     80  53  39 N13       30.15S
DICKINSON      SUNNY     80  49  33 N9        30.19S
GARRISON         N/A     76  55  48 NW12G21   30.15S
HETTINGER ARPT SUNNY     86  42  21 W17G24    30.21S
JAMESTOWN      SUNNY     78  54  43 W14       30.10F
BEACH          FAIR      79  45  29 N9        30.23S
CROSBY         FAIR      75  50  41 NW18G24   30.18S
HARVEY         FAIR      77  52  41 NW16      30.11F
HAZEN          FAIR      77  48  36 NW14      30.17S
LINTON         FAIR      82  55  39 W10G17    30.15F
MANDAN         FAIR      77  52  41 NW10      30.17S
OAKES            N/A     82  57  42 W12       30.11S
STANLEY        FAIR      75  52  43 NW12G21   30.18S
$$

CITY           SKY/WX    TMP DP  RH WIND       PRES   REMARKS
GRAND FORKS    MOSUNNY   81  53  37 NW17G29   30.00S
GRAND FORKS AF SUNNY     79  57  46 NW13      30.02S
DEVILS LAKE    SUNNY     77  55  47 W20       30.06S
FARGO          SUNNY     82  55  39 W17       30.05S
CAVALIER       FAIR      79  57  47 NW15G25   29.98S
GRAFTON        FAIR      79  55  44 W17       30.00S
GWINNER        FAIR      79  57  47 W9        30.11S
LANGDON        FAIR      77  54  44 NW18G25   30.04S
ROLLA            N/A     72  54  53 NW16G25   30.08S
WALHALLA       FAIR      77  54  44 MISG      29.98F
$$

CITY           SKY/WX    TMP DP  RH WIND       PRES   REMARKS
ABERDEEN       SUNNY     86  53  32 W12G20    30.12S
MOBRIDGE       SUNNY     87  54  32 NW9       30.13S
BUFFALO          N/A     85  38  18 W15G23    30.17S
RAPID CITY     SUNNY     84  45  25 N9        30.27S
GLASGOW        SUNNY     78  49  35 NW7       30.21F
SIDNEY         SUNNY    N/A N/A N/A NW8       30.19S
WOLF POINT     SUNNY     82  46  28 CALM      30.20S
GLENDIVE       SUNNY     82  46  28 N8G16     30.22S
MILES CITY     SUNNY     86  43  22 MISG      30.21F
BAKER          SUNNY     84  41  21 NW10      30.24S
$$

CITY           SKY/WX    TMP DP  RH WIND       PRES   REMARKS
BILLINGS       MOSUNNY   80  40  23 SW8       30.29F
GREAT FALLS    SUNNY     79  36  21 CALM      30.28S
REGINA         PTSUNNY   73  52  46 NW17G23   30.17R
ESTEVAN        MOSUNNY   75  52  43 NW22G29   30.16S
$$




USA.gov is the U.S. government's official web portal to all federal, state and local government web resources and services.